| time (UTC) | temp F | wind direction | speed MPH | gust MPH | rain 1hr in | rain 24hr in | rain mn in | humidity % | barometer mb |
| 20260510083002 | 58 | 277 | 1.0 | 4.0 | 0.00 | 0.16 | 0.02 | 81 | 1011.3 |
| 20260510081611 | 59 | 277 | 2.0 | 4.0 | 0.00 | 0.16 | 0.02 | 80 | 1011.3 |
| 20260510080003 | 60 | 277 | 3.0 | 6.0 | 0.00 | 0.16 | 0.02 | 75 | 1011.2 |
| 20260510074605 | 62 | 5 | 2.0 | 3.0 | 0.00 | 0.16 | 0.02 | 69 | 1011.0 |
| 20260510073002 | 63 | 348 | 0.0 | 5.0 | 0.00 | 0.16 | 0.02 | 67 | 1010.7 |
| 20260510071601 | 63 | 34 | 5.0 | 15.0 | 0.00 | 0.16 | 0.02 | 67 | 1010.4 |
| 20260510070103 | 64 | 260 | 3.0 | 7.0 | 0.00 | 0.16 | 0.02 | 64 | 1009.3 |
| 20260510064502 | 65 | 123 | 6.0 | 14.0 | 0.00 | 0.16 | 0.02 | 63 | 1008.6 |
| 20260510063102 | 65 | 136 | 9.0 | 18.0 | 0.00 | 0.16 | 0.02 | 62 | 1008.2 |
| 20260510061502 | 65 | 159 | 8.0 | 14.0 | 0.00 | 0.16 | 0.02 | 63 | 1007.4 |
| 20260510054503 | 66 | 143 | 10.0 | 28.0 | 0.04 | 0.16 | 0.02 | 63 | 1006.3 |
| 20260510053103 | 64 | 144 | 14.0 | 32.0 | 0.09 | 0.16 | 0.02 | 69 | 1005.9 |
| 20260510051504 | 62 | 150 | 13.0 | 22.0 | 0.13 | 0.16 | 0.02 | 82 | 1008.8 |
| 20260510050004 | 63 | 171 | 10.0 | 17.0 | 0.12 | 0.14 | 0.14 | 79 | 1011.1 |
| 20260510044639 | 62 | 111 | 7.0 | 10.0 | 0.11 | 0.12 | 0.12 | 80 | 1012.1 |
| 20260510043003 | 62 | 180 | 3.0 | 5.0 | 0.06 | 0.07 | 0.07 | 82 | 1013.3 |
| 20260510041603 | 63 | 298 | 5.0 | 11.0 | 0.02 | 0.03 | 0.03 | 79 | 1014.1 |
| 20260510040112 | 65 | 342 | 9.0 | 15.0 | 0.01 | 0.02 | 0.02 | 71 | 1013.7 |
| 20260510034502 | 70 | 355 | 10.0 | 20.0 | 0.00 | 0.01 | 0.01 | 59 | 1013.4 |
| 20260510033102 | 73 | 10 | 16.0 | 27.0 | 0.00 | 0.01 | 0.01 | 47 | 1012.6 |
| 20260510031503 | 72 | 5 | 12.0 | 17.0 | 0.00 | 0.01 | 0.01 | 46 | 1011.7 |
| 20260510030006 | 71 | 31 | 6.0 | 10.0 | 0.00 | 0.01 | 0.01 | 48 | 1009.5 |
| 20260510024602 | 71 | 101 | 7.0 | 12.0 | 0.00 | 0.01 | 0.01 | 48 | 1008.3 |
| 20260510023002 | 70 | 114 | 8.0 | 12.0 | 0.00 | 0.01 | 0.01 | 48 | 1007.7 |
| 20260510021602 | 70 | 107 | 7.0 | 10.0 | 0.00 | 0.01 | 0.01 | 48 | 1007.8 |
| 20260510014502 | 72 | 103 | 4.0 | 8.0 | 0.00 | 0.01 | 0.01 | 44 | 1006.9 |
| 20260510013104 | 74 | 106 | 6.0 | 10.0 | 0.00 | 0.01 | 0.01 | 40 | 1006.4 |
| 20260510011503 | 76 | 106 | 8.0 | 12.0 | 0.00 | 0.01 | 0.01 | 37 | 1006.1 |
| 20260510010002 | 78 | 118 | 8.0 | 13.0 | 0.00 | 0.01 | 0.01 | 35 | 1005.8 |
| 20260510004610 | 79 | 117 | 7.0 | 13.0 | 0.00 | 0.01 | 0.01 | 35 | 1005.7 |
| 20260510003008 | 81 | 127 | 4.0 | 9.0 | 0.00 | 0.01 | 0.01 | 34 | 1005.8 |
| 20260510000004 | 83 | 165 | 6.0 | 13.0 | 0.00 | 0.01 | 0.01 | 31 | 1005.9 |
| 20260509234643 | 84 | 154 | 6.0 | 12.0 | 0.00 | 0.01 | 0.01 | 30 | 1006.0 |
| 20260509233002 | 84 | 154 | 6.0 | 9.0 | 0.00 | 0.01 | 0.01 | 29 | 1006.1 |
| 20260509231604 | 84 | 150 | 5.0 | 10.0 | 0.00 | 0.01 | 0.01 | 30 | 1006.1 |
| 20260509230104 | 84 | 167 | 6.0 | 12.0 | 0.00 | 0.01 | 0.01 | 29 | 1006.1 |
| 20260509224503 | 83 | 107 | 4.0 | 14.0 | 0.00 | 0.01 | 0.01 | 29 | 1006.1 |
| 20260509223103 | 85 | 136 | 8.0 | 15.0 | 0.00 | 0.01 | 0.01 | 25 | 1006.2 |
| 20260509221503 | 86 | 112 | 4.0 | 10.0 | 0.00 | 0.01 | 0.01 | 25 | 1006.1 |
| 20260509220002 | 86 | 114 | 5.0 | 10.0 | 0.00 | 0.01 | 0.01 | 25 | 1006.2 |
| 20260509214603 | 86 | 157 | 3.0 | 12.0 | 0.00 | 0.01 | 0.01 | 24 | 1006.2 |
| 20260509213003 | 86 | 138 | 7.0 | 13.0 | 0.00 | 0.01 | 0.01 | 25 | 1006.5 |
| 20260509211604 | 86 | 120 | 4.0 | 14.0 | 0.00 | 0.01 | 0.01 | 25 | 1006.6 |
| 20260509204503 | 85 | 164 | 6.0 | 12.0 | 0.00 | 0.01 | 0.01 | 26 | 1007.2 |
| 20260509203145 | 86 | 180 | 7.0 | 9.0 | 0.00 | 0.01 | 0.01 | 23 | 1007.4 |
| 20260509201504 | 87 | 145 | 6.0 | 11.0 | 0.00 | 0.01 | 0.01 | 22 | 1007.5 |
| 20260509200003 | 86 | 173 | 5.0 | 9.0 | 0.00 | 0.01 | 0.01 | 25 | 1007.9 |
| 20260509194602 | 85 | 165 | 5.0 | 12.0 | 0.00 | 0.01 | 0.01 | 26 | 1008.0 |
| 20260509193003 | 86 | 200 | 4.0 | 10.0 | 0.00 | 0.01 | 0.01 | 25 | 1008.2 |
| 20260509191616 | 85 | 152 | 5.0 | 9.0 | 0.00 | 0.01 | 0.01 | 28 | 1008.2 |
| 20260509190107 | 84 | 126 | 6.0 | 11.0 | 0.00 | 0.01 | 0.01 | 27 | 1008.3 |
| 20260509184507 | 85 | 201 | 5.0 | 11.0 | 0.00 | 0.01 | 0.01 | 28 | 1008.4 |
| 20260509183106 | 84 | 99 | 6.0 | 11.0 | 0.00 | 0.01 | 0.01 | 23 | 1008.6 |
| 20260509181503 | 84 | 113 | 4.0 | 11.0 | 0.00 | 0.01 | 0.01 | 29 | 1008.9 |
| 20260509180002 | 83 | 123 | 5.0 | 10.0 | 0.00 | 0.01 | 0.01 | 29 | 1009.2 |
| 20260509174614 | 83 | 178 | 1.0 | 7.0 | 0.00 | 0.01 | 0.01 | 32 | 1009.2 |
| 20260509173003 | 81 | 167 | 5.0 | 9.0 | 0.00 | 0.01 | 0.01 | 37 | 1009.4 |
| 20260509171503 | 82 | 170 | 3.0 | 6.0 | 0.00 | 0.01 | 0.01 | 31 | 1009.5 |
| 20260509170002 | 81 | 165 | 3.0 | 8.0 | 0.00 | 0.01 | 0.01 | 32 | 1009.6 |
| 20260509164609 | 82 | 167 | 2.0 | 7.0 | 0.00 | 0.01 | 0.01 | 34 | 1009.8 |
| 20260509163004 | 82 | 216 | 2.0 | 7.0 | 0.00 | 0.01 | 0.01 | 36 | 1009.6 |
| 20260509161605 | 81 | 179 | 3.0 | 8.0 | 0.00 | 0.01 | 0.01 | 32 | 1009.8 |
| 20260509160106 | 80 | 217 | 8.0 | 11.0 | 0.00 | 0.01 | 0.01 | 40 | 1009.8 |
| 20260509154502 | 78 | 254 | 7.0 | 11.0 | 0.00 | 0.01 | 0.01 | 47 | 1009.8 |
| 20260509153105 | 76 | 270 | 2.0 | 9.0 | 0.00 | 0.01 | 0.01 | 47 | 1009.8 |
| 20260509151609 | 75 | 250 | 2.0 | 5.0 | 0.00 | 0.01 | 0.01 | 52 | 1009.9 |
| 20260509150103 | 72 | 250 | 0.0 | 2.0 | 0.00 | 0.01 | 0.01 | 62 | 1009.7 |
| 20260509144503 | 69 | 250 | 1.0 | 3.0 | 0.00 | 0.01 | 0.01 | 74 | 1009.6 |
| 20260509143102 | 66 | 250 | 0.0 | 4.0 | 0.00 | 0.01 | 0.01 | 81 | 1009.7 |
| 20260509141507 | 63 | 250 | 1.0 | 4.0 | 0.00 | 0.01 | 0.01 | 89 | 1009.9 |
| 20260509140006 | 61 | 250 | 1.0 | 5.0 | 0.00 | 0.01 | 0.01 | 92 | 1009.9 |
| 20260509134604 | 59 | 247 | 4.0 | 7.0 | 0.00 | 0.01 | 0.01 | 94 | 1010.0 |
| 20260509133008 | 58 | 141 | 0.0 | 0.0 | 0.00 | 0.01 | 0.01 | 94 | 1009.7 |
| 20260509131610 | 56 | 141 | 0.0 | 0.0 | 0.00 | 0.01 | 0.01 | 94 | 1009.5 |
| 20260509130106 | 54 | 141 | 0.0 | 0.0 | 0.00 | 0.01 | 0.01 | 94 | 1009.5 |
| 20260509124503 | 52 | 141 | 0.0 | 0.0 | 0.00 | 0.01 | 0.01 | 94 | 1009.4 |
| 20260509123104 | 49 | 141 | 0.0 | 0.0 | 0.00 | 0.01 | 0.01 | 94 | 1009.2 |
| 20260509121502 | 47 | 141 | 0.0 | 0.0 | 0.01 | 0.01 | 0.01 | 92 | 1009.1 |
| 20260509120003 | 46 | 141 | 0.0 | 0.0 | 0.01 | 0.01 | 0.01 | 92 | 1009.0 |
| 20260509114602 | 47 | 141 | 0.0 | 0.0 | 0.01 | 0.01 | 0.01 | 92 | 1008.9 |
| 20260509113002 | 47 | 141 | 0.0 | 0.0 | 0.01 | 0.01 | 0.01 | 92 | 1008.8 |
| 20260509111608 | 47 | 141 | 0.0 | 0.0 | 0.00 | 0.00 | 0.00 | 92 | 1008.6 |
| 20260509110103 | 48 | 141 | 0.0 | 0.0 | 0.00 | 0.00 | 0.00 | 92 | 1008.6 |
| 20260509104503 | 48 | 141 | 0.0 | 0.0 | 0.00 | 0.00 | 0.00 | 92 | 1008.6 |
| 20260509103106 | 49 | 141 | 0.0 | 0.0 | 0.00 | 0.00 | 0.00 | 92 | 1008.5 |
| 20260509101502 | 49 | 141 | 0.0 | 0.0 | 0.00 | 0.00 | 0.00 | 92 | 1008.6 |
| 20260509100002 | 50 | 141 | 0.0 | 0.0 | 0.00 | 0.00 | 0.00 | 92 | 1008.8 |
| 20260509094602 | 51 | 141 | 0.0 | 0.0 | 0.00 | 0.00 | 0.00 | 92 | 1008.9 |
| 20260509093003 | 50 | 141 | 0.0 | 0.0 | 0.00 | 0.00 | 0.00 | 92 | 1008.7 |
| 20260509091609 | 51 | 141 | 0.0 | 0.0 | 0.00 | 0.00 | 0.00 | 92 | 1008.8 |
| 20260509084503 | 51 | 141 | 0.0 | 0.0 | 0.00 | 0.00 | 0.00 | 92 | 1009.2 |
| 20260509083102 | 51 | 141 | 0.0 | 0.0 | 0.00 | 0.00 | 0.00 | 91 | 1009.3 |